Location: Climax
(33.2048°N, 96.4497°W)
Time: 06:20:14
(UTC+00:00)

SL-4 R/B - Pass Details

Date: 12 July 2022
Orbit: 425 x 653 km, 51.6° (Epoch: 14 August)

Event Time Altitude Azimuth Distance (km) Brightness Sun altitude
Rises 03:41:24 0° 262° (W) 2,375 5.7 -21.5°
Reaches altitude 10° 03:43:59 10° 282° (WNW) 1,511 5.0 -21.9°
Maximum altitude 03:46:22 18° 328° (NNW) 1,133 4.5 -22.2°
Drops below altitude 10° 03:48:46 10° 13° (NNE) 1,534 4.7 -22.6°
Sets 03:51:25 0° 33° (NNE) 2,429 5.5 -22.9°
